GW3852 Weather Reports


time (UTC)temp
C
wind
direction
speed
KPH
gust
KPH
rain 1hr
cm
rain 24hr
cm
rain mn
cm
humidity
%
barometer
mb
20260506051010 18 197 1.6 4.8 0.00 0.00 0.00 61 1014.1
20260506050505 18 246 0.0 3.2 0.00 0.00 0.00 60 1014.1
20260506045007 18 161 3.2 8.0 0.00 0.00 0.00 59 1013.7
20260506044511 18 182 3.2 11.3 0.00 0.00 0.00 58 1013.5
20260506044003 18 192 6.4 11.3 0.00 0.00 0.00 58 1013.5
20260506043507 18 197 4.8 8.0 0.00 0.00 0.00 58 1013.6
20260506043008 19 178 3.2 6.4 0.00 0.00 0.00 57 1014.0
20260506042507 19 218 3.2 6.4 0.00 0.00 0.00 57 1014.3
20260506042009 19 182 3.2 6.4 0.00 0.00 0.00 56 1014.0
20260506041515 19 196 3.2 8.0 0.00 0.00 0.00 56 1014.1
20260506041002 19 204 3.2 9.7 0.00 0.00 0.00 55 1014.2
20260506040506 19 170 3.2 9.7 0.00 0.00 0.00 55 1013.9
20260506040009 20 194 4.8 12.9 0.00 0.00 0.00 54 1013.8
20260506035507 20 213 6.4 12.9 0.00 0.00 0.00 54 1013.8
20260506035007 20 190 3.2 8.0 0.00 0.00 0.00 55 1013.9
20260506034520 20 196 3.2 8.0 0.00 0.00 0.00 54 1014.0
20260506034009 20 192 3.2 9.7 0.00 0.00 0.00 53 1013.8
20260506033507 20 192 4.8 9.7 0.00 0.00 0.00 53 1013.7
20260506033021 20 165 1.6 9.7 0.00 0.00 0.00 53 1013.8
20260506032506 20 181 3.2 9.7 0.00 0.00 0.00 52 1014.0
20260506032003 20 167 3.2 11.3 0.00 0.00 0.00 52 1014.0
20260506031514 20 202 4.8 11.3 0.00 0.00 0.00 51 1013.9
20260506031004 20 213 4.8 11.3 0.00 0.00 0.00 51 1013.8
20260506030510 20 168 3.2 12.9 0.00 0.00 0.00 50 1013.8
20260506030019 20 196 6.4 12.9 0.00 0.00 0.00 50 1013.9
20260506025504 20 171 6.4 12.9 0.00 0.00 0.00 50 1013.9
20260506025006 20 209 4.8 9.7 0.00 0.00 0.00 50 1014.0
20260506024533 20 205 4.8 9.7 0.00 0.00 0.00 51 1014.1
20260506024008 20 202 4.8 9.7 0.00 0.00 0.00 50 1014.2
20260506023506 20 202 3.2 8.0 0.00 0.00 0.00 51 1014.1
20260506023015 20 199 3.2 8.0 0.00 0.00 0.00 50 1014.3
20260506022507 20 207 3.2 6.4 0.00 0.00 0.00 50 1014.2
20260506022007 20 191 3.2 6.4 0.00 0.00 0.00 51 1014.1
20260506021518 20 179 3.2 6.4 0.00 0.00 0.00 50 1014.0
20260506021009 20 202 1.6 9.7 0.00 0.00 0.00 50 1014.0
20260506020507 20 204 3.2 8.0 0.00 0.00 0.00 52 1013.8
20260506020024 20 186 3.2 6.4 0.00 0.00 0.00 50 1013.7
20260506015506 21 213 1.6 11.3 0.00 0.00 0.00 49 1013.6
20260506015008 21 196 3.2 11.3 0.00 0.00 0.00 49 1013.5
20260506014524 21 200 4.8 9.7 0.00 0.00 0.00 50 1013.5
20260506014009 21 187 3.2 9.7 0.00 0.00 0.00 49 1013.8
20260506013511 21 219 3.2 9.7 0.00 0.00 0.00 49 1013.7
20260506013016 21 209 4.8 9.7 0.00 0.00 0.00 49 1013.6
20260506012507 21 192 3.2 8.0 0.00 0.00 0.00 49 1013.6
20260506012009 21 184 3.2 8.0 0.00 0.00 0.00 49 1013.5
20260506011512 21 205 4.8 9.7 0.00 0.00 0.00 49 1013.5
20260506011008 21 204 3.2 9.7 0.00 0.00 0.00 49 1013.5
20260506010508 21 196 3.2 9.7 0.00 0.00 0.00 48 1013.5
20260506010021 21 192 3.2 9.7 0.00 0.00 0.00 48 1013.5
20260506005509 21 200 4.8 9.7 0.00 0.00 0.00 48 1013.4
20260506005007 21 160 3.2 8.0 0.00 0.00 0.00 48 1013.6
20260506004517 21 201 4.8 8.0 0.00 0.00 0.00 48 1013.5
20260506004009 21 197 1.6 6.4 0.00 0.00 0.00 48 1013.6
20260506003510 21 163 3.2 6.4 0.00 0.00 0.00 48 1013.5
20260506003024 21 191 1.6 3.2 0.00 0.00 0.00 47 1013.7
20260506002511 21 191 1.6 4.8 0.00 0.00 0.00 46 1013.7
20260506002007 22 191 1.6 4.8 0.00 0.00 0.00 45 1013.7
20260506001527 22 200 1.6 4.8 0.00 0.00 0.00 45 1013.7
20260506001007 22 215 0.0 4.8 0.00 0.00 0.00 43 1013.8
20260506000507 22 175 1.6 12.9 0.00 0.00 0.00 43 1013.9
20260506000018 22 217 3.2 12.9 0.00 0.00 0.00 43 1013.9
20260505235503 22 223 1.6 11.3 0.00 0.00 0.00 43 1013.7
20260505235008 22 208 4.8 11.3 0.00 0.00 0.00 42 1013.7
20260505234506 22 202 4.8 11.3 0.00 0.00 0.00 41 1013.6
20260505234005 23 217 4.8 11.3 0.00 0.00 0.00 41 1013.7
20260505233505 23 267 4.8 9.7 0.00 0.00 0.00 40 1013.8
20260505233003 23 202 4.8 9.7 0.00 0.00 0.00 41 1013.9
20260505232509 23 222 6.4 12.9 0.00 0.00 0.00 40 1013.9
20260505232005 23 188 6.4 17.7 0.00 0.00 0.00 40 1013.8
20260505231512 23 250 9.7 17.7 0.00 0.00 0.00 39 1013.8
20260505231003 23 201 6.4 12.9 0.00 0.00 0.00 40 1014.0
20260505230503 23 237 6.4 12.9 0.00 0.00 0.00 40 1013.8
20260505230022 23 220 3.2 12.9 0.00 0.00 0.00 40 1013.8
20260505225506 23 225 8.0 12.9 0.00 0.00 0.00 39 1013.6
20260505225002 24 183 6.4 19.3 0.00 0.00 0.00 40 1013.4
20260505224503 24 224 6.4 19.3 0.00 0.00 0.00 40 1013.5
20260505224002 24 242 8.0 12.9 0.00 0.00 0.00 39 1013.4
20260505223505 24 269 4.8 16.1 0.00 0.00 0.00 39 1013.3
20260505223003 24 188 9.7 16.1 0.00 0.00 0.00 37 1013.4
20260505222502 25 196 4.8 12.9 0.00 0.00 0.00 38 1013.5
20260505222009 24 190 4.8 16.1 0.00 0.00 0.00 38 1013.5
20260505221511 24 209 9.7 16.1 0.00 0.00 0.00 37 1013.5
20260505221005 24 232 6.4 11.3 0.00 0.00 0.00 37 1013.5
20260505220505 24 222 3.2 14.5 0.00 0.00 0.00 37 1013.5
20260505220007 24 203 6.4 14.5 0.00 0.00 0.00 36 1013.6
20260505215503 24 184 6.4 20.9 0.00 0.00 0.00 37 1013.5
20260505215003 24 206 11.3 24.1 0.00 0.00 0.00 37 1013.3
20260505214505 25 202 12.9 24.1 0.00 0.00 0.00 35 1013.4
20260505214012 25 180 6.4 17.7 0.00 0.00 0.00 37 1013.2
20260505213502 25 169 9.7 19.3 0.00 0.00 0.00 36 1013.3
20260505213012 25 184 8.0 19.3 0.00 0.00 0.00 35 1013.5
20260505212507 25 203 8.0 17.7 0.00 0.00 0.00 37 1013.3
20260505212003 25 224 11.3 17.7 0.00 0.00 0.00 35 1013.4
20260505211514 25 230 9.7 29.0 0.00 0.00 0.00 35 1013.5
20260505211009 25 213 14.5 29.0 0.00 0.00 0.00 35 1013.7
20260505210504 25 181 6.4 25.7 0.00 0.00 0.00 36 1013.6
20260505210004 25 225 9.7 22.5 0.00 0.00 0.00 36 1013.7
20260505205504 25 207 8.0 24.1 0.00 0.00 0.00 36 1013.7
20260505205009 25 203 12.9 25.7 0.00 0.00 0.00 36 1013.7
20260505204520 25 195 11.3 25.7 0.00 0.00 0.00 36 1013.5
20260505204003 25 192 12.9 20.9 0.00 0.00 0.00 37 1013.8
20260505203508 25 214 4.8 19.3 0.00 0.00 0.00 37 1013.9
20260505203018 25 154 11.3 20.9 0.00 0.00 0.00 37 1014.0
20260505202503 25 171 9.7 20.9 0.00 0.00 0.00 37 1014.0
20260505202007 25 240 9.7 17.7 0.00 0.00 0.00 38 1014.0
20260505201515 25 193 11.3 17.7 0.00 0.00 0.00 35 1014.2
20260505201009 25 237 9.7 16.1 0.00 0.00 0.00 35 1014.2
20260505200506 25 178 6.4 19.3 0.00 0.00 0.00 36 1014.2
20260505200005 25 264 4.8 19.3 0.00 0.00 0.00 38 1014.5
20260505195506 25 221 8.0 17.7 0.00 0.00 0.00 37 1014.5
20260505195003 25 179 8.0 17.7 0.00 0.00 0.00 38 1014.6
20260505194521 25 269 6.4 19.3 0.00 0.00 0.00 39 1014.7
20260505194011 25 203 11.3 19.3 0.00 0.00 0.00 41 1014.8
20260505193504 25 226 9.7 17.7 0.00 0.00 0.00 38 1014.8
20260505193012 25 163 9.7 22.5 0.00 0.00 0.00 38 1015.0
20260505192008 25 212 6.4 20.9 0.00 0.00 0.00 38 1015.1
20260505191508 25 234 9.7 24.1 0.00 0.00 0.00 40 1015.1
20260505191003 25 180 11.3 25.7 0.00 0.00 0.00 38 1015.1
20260505190507 24 184 11.3 25.7 0.00 0.00 0.00 40 1015.1
20260505190021 25 167 11.3 25.7 0.00 0.00 0.00 42 1015.1
20260505185506 24 214 8.0 24.1 0.00 0.00 0.00 39 1015.1
20260505185006 24 238 9.7 24.1 0.00 0.00 0.00 39 1015.2
20260505184518 25 259 9.7 20.9 0.00 0.00 0.00 39 1015.2
20260505184010 24 242 9.7 24.1 0.00 0.00 0.00 40 1015.3
20260505183505 24 223 11.3 25.7 0.00 0.00 0.00 39 1015.3
20260505183013 24 216 16.1 27.4 0.00 0.00 0.00 36 1015.5
20260505182509 24 190 11.3 27.4 0.00 0.00 0.00 41 1015.3
20260505182007 23 236 8.0 22.5 0.00 0.00 0.00 42 1015.3
20260505181518 23 227 12.9 22.5 0.00 0.00 0.00 41 1015.4
20260505181010 23 219 12.9 20.9 0.00 0.00 0.00 40 1015.5
20260505180507 24 140 9.7 20.9 0.00 0.00 0.00 41 1015.7
20260505180038 24 216 12.9 24.1 0.00 0.00 0.00 39 1015.9
20260505175510 23 128 8.0 24.1 0.00 0.00 0.00 42 1015.9
20260505175003 23 165 11.3 20.9 0.00 0.00 0.00 41 1016.2
20260505174516 23 157 12.9 20.9 0.00 0.00 0.00 42 1016.1
20260505174007 23 202 9.7 24.1 0.00 0.00 0.00 41 1016.1
20260505173510 23 158 8.0 24.1 0.00 0.00 0.00 42 1016.3
20260505173023 23 226 11.3 22.5 0.00 0.00 0.00 42 1016.4
20260505172510 23 222 11.3 19.3 0.00 0.00 0.00 41 1016.4
20260505172012 23 227 12.9 24.1 0.00 0.00 0.00 42 1016.4
20260505171529 23 242 12.9 24.1 0.00 0.00 0.00 42 1016.4
20260505171009 23 189 9.7 25.7 0.00 0.00 0.00 43 1016.4
20260505170505 23 232 12.9 25.7 0.00 0.00 0.00 43 1016.3
20260505170025 23 169 11.3 20.9 0.00 0.00 0.00 41 1016.5
20260505165508 23 187 9.7 20.9 0.00 0.00 0.00 45 1016.4
20260505165005 23 225 9.7 20.9 0.00 0.00 0.00 43 1016.4
20260505164516 23 147 11.3 20.9 0.00 0.00 0.00 44 1016.5
20260505164010 22 219 8.0 27.4 0.00 0.00 0.00 44 1016.5
20260505163513 23 221 17.7 27.4 0.00 0.00 0.00 42 1016.5
20260505163028 23 227 11.3 24.1 0.00 0.00 0.00 43 1016.4
20260505162506 23 196 11.3 27.4 0.00 0.00 0.00 42 1016.2
20260505162009 23 183 9.7 27.4 0.00 0.00 0.00 44 1016.3
20260505161518 23 200 12.9 25.7 0.00 0.00 0.00 43 1016.4
20260505161007 22 209 14.5 24.1 0.00 0.00 0.00 43 1016.3
20260505160507 22 227 11.3 22.5 0.00 0.00 0.00 42 1016.3
20260505153023 22 186 16.1 25.7 0.00 0.00 0.00 47 1016.5
20260505152513 22 264 11.3 20.9 0.00 0.00 0.00 48 1016.7
20260505152008 22 216 8.0 22.5 0.00 0.00 0.00 49 1016.5
20260505151520 22 140 9.7 22.5 0.00 0.00 0.00 49 1016.5
20260505151011 22 183 6.4 16.1 0.00 0.00 0.00 50 1016.5
20260505150507 22 139 8.0 16.1 0.00 0.00 0.00 53 1016.3
20260505140513 20 22 1.6 6.4 0.00 0.00 0.00 64 1016.2
20260505125013 12 277 0.0 3.2 0.00 0.00 0.00 89 1015.8
20260505124529 12 277 0.0 1.6 0.00 0.00 0.00 90 1015.9
20260505124013 11 277 0.0 1.6 0.00 0.00 0.00 90 1015.8
20260505123512 11 277 0.0 0.0 0.00 0.00 0.00 90 1015.7
20260505123032 10 277 0.0 0.0 0.00 0.00 0.00 90 1015.7
20260505122509 10 277 0.0 0.0 0.00 0.00 0.00 90 1015.7
20260505122011 10 277 0.0 0.0 0.00 0.00 0.00 90 1015.5
20260505121526 10 276 0.0 0.0 0.00 0.00 0.00 90 1015.5
20260505121009 9 277 0.0 0.0 0.00 0.00 0.00 89 1015.5
20260505120506 9 277 0.0 3.2 0.00 0.00 0.00 89 1015.5
20260505120029 9 277 0.0 3.2 0.00 0.00 0.00 89 1015.5
20260505115508 9 277 0.0 3.2 0.00 0.00 0.00 89 1015.5
20260505115011 8 277 0.0 1.6 0.00 0.00 0.00 89 1015.6
20260505114525 8 194 0.0 0.0 0.00 0.00 0.00 89 1015.5
20260505114010 8 194 0.0 0.0 0.00 0.00 0.00 89 1015.3
20260505113507 8 194 0.0 0.0 0.00 0.00 0.00 89 1015.1
20260505113025 8 194 0.0 0.0 0.00 0.00 0.00 89 1015.1
20260505112514 8 194 0.0 0.0 0.00 0.00 0.00 88 1015.0
20260505112003 8 194 0.0 0.0 0.00 0.00 0.00 88 1015.0
20260505111511 8 194 0.0 0.0 0.00 0.00 0.00 88 1015.0
20260505111004 8 192 0.0 0.0 0.00 0.00 0.00 88 1014.9
20260505110504 8 192 0.0 0.0 0.00 0.00 0.00 88 1015.0
20260505102006 8 192 0.0 0.0 0.00 0.00 0.00 87 1014.8
20260505101525 8 192 0.0 0.0 0.00 0.00 0.00 87 1014.8
20260505101006 8 192 0.0 1.6 0.00 0.00 0.00 87 1014.8
20260505100507 8 192 0.0 1.6 0.00 0.00 0.00 88 1014.9
20260505100021 8 192 0.0 0.0 0.00 0.00 0.00 87 1014.8
20260505095506 8 192 0.0 0.0 0.00 0.00 0.00 88 1015.0
20260505095003 8 192 0.0 1.6 0.00 0.00 0.00 88 1015.0
20260505094506 8 192 0.0 3.2 0.00 0.00 0.00 88 1015.0
20260505094006 8 192 0.0 3.2 0.00 0.00 0.00 88 1015.0
20260505093503 8 192 0.0 3.2 0.00 0.00 0.00 88 1014.9
20260505093025 8 192 0.0 3.2 0.00 0.00 0.00 88 1014.7
20260505092508 8 192 0.0 3.2 0.00 0.00 0.00 88 1014.6
20260505092003 8 192 0.0 3.2 0.00 0.00 0.00 88 1014.7
20260505091528 8 192 0.0 3.2 0.00 0.00 0.00 88 1014.7
20260505091005 8 192 0.0 3.2 0.00 0.00 0.00 87 1014.9
20260505090507 8 192 0.0 3.2 0.00 0.00 0.00 87 1014.9
20260505090019 8 192 0.0 0.0 0.00 0.00 0.00 87 1015.0
20260505085504 8 192 0.0 0.0 0.00 0.00 0.00 87 1015.0
20260505085007 8 192 0.0 0.0 0.00 0.00 0.00 86 1015.0
20260505084516 8 192 0.0 0.0 0.00 0.00 0.00 86 1015.0
20260505084003 8 192 0.0 0.0 0.00 0.00 0.00 86 1015.0
20260505083507 8 192 0.0 0.0 0.00 0.00 0.00 86 1015.2
20260505083013 8 192 0.0 0.0 0.00 0.00 0.00 86 1015.2
20260505082510 8 192 0.0 3.2 0.00 0.00 0.00 86 1015.2
20260505082007 8 192 0.0 3.2 0.00 0.00 0.00 86 1015.1
20260505081511 8 192 0.0 3.2 0.00 0.00 0.00 85 1015.1
20260505081007 8 192 0.0 0.0 0.00 0.00 0.00 85 1015.0
20260505080505 9 192 0.0 0.0 0.00 0.00 0.00 85 1015.0
20260505080024 9 192 0.0 0.0 0.00 0.00 0.00 85 1015.1
20260505075507 9 192 0.0 0.0 0.00 0.00 0.00 85 1015.1
20260505075008 9 192 0.0 0.0 0.00 0.00 0.00 84 1015.1
20260505074524 9 192 0.0 0.0 0.00 0.00 0.00 84 1015.1
20260505074009 9 192 0.0 0.0 0.00 0.00 0.00 84 1015.1
20260505073504 9 192 0.0 0.0 0.00 0.00 0.00 84 1015.1
20260505073033 9 192 0.0 0.0 0.00 0.00 0.00 84 1015.0
20260505072507 10 192 0.0 0.0 0.00 0.00 0.00 83 1015.1
20260505072004 10 192 0.0 0.0 0.00 0.00 0.00 83 1015.1
20260505071518 10 192 0.0 0.0 0.00 0.00 0.00 83 1015.1
20260505071003 10 192 0.0 3.2 0.00 0.00 0.00 83 1015.1
20260505070503 10 192 1.6 3.2 0.00 0.00 0.00 82 1015.1
20260505070015 10 192 0.0 0.0 0.00 0.00 0.00 82 1015.1
20260505065510 10 192 0.0 0.0 0.00 0.00 0.00 82 1015.1
20260505065007 10 192 0.0 1.6 0.00 0.00 0.00 82 1015.1
20260505064517 10 192 0.0 3.2 0.00 0.00 0.00 82 1015.1
20260505064009 10 192 0.0 3.2 0.00 0.00 0.00 81 1015.0
20260505063505 10 192 0.0 3.2 0.00 0.00 0.00 80 1015.1
20260505063010 10 192 0.0 3.2 0.00 0.00 0.00 80 1015.1
20260505062507 10 192 0.0 3.2 0.00 0.00 0.00 80 1015.2
20260505062010 10 192 0.0 3.2 0.00 0.00 0.00 80 1015.2
20260505061533 11 192 1.6 3.2 0.00 0.00 0.00 78 1015.3
20260505061003 11 192 0.0 0.0 0.00 0.00 0.00 78 1015.2
20260505060510 11 192 0.0 0.0 0.00 0.00 0.00 78 1015.2
20260505060022 11 192 0.0 0.0 0.00 0.00 0.00 77 1015.2